When you browse on this site, cookies collect data to enhance your experience and personalize the content and advertising you see.
Visit our Privacy Policy to learn more. By continuing to use the site, you agree to this use of cookies and data.
  • In Czech Republic
  • List of Countries
  • For 7 days
  • Water Temperature
  • Satellite Maps
  • Weather Map
  • Weather Widgets
  • user-avatar
    Login

    Hourly Weather Qala i Naw

    Today, 22 March, Friday

    Time Temperature Precipitation Wind Pressure Humidity
    00:00 +10°C° 0.1 mm 1 mps 681 mmHg 80%
    01:00 +10°C° 0.1 mm 1 mps 681 mmHg 81%
    02:00 +10°C° 0 mm 1 mps 681 mmHg 82%
    03:00 +9°C° 0 mm 1 mps 681 mmHg 83%
    04:00 +9°C° 0 mm 1 mps 681 mmHg 87%
    05:00 +9°C° 0 mm 1 mps 681 mmHg 83%
    06:00 +9°C° 0 mm 1 mps 681 mmHg 80%
    07:00 +10°C° 0 mm 1 mps 681 mmHg 76%
    08:00 +10°C° 0 mm 2 mps 681 mmHg 72%
    09:00 +12°C° 0 mm 2 mps 681 mmHg 68%
    10:00 +11°C° 0 mm 3 mps 681 mmHg 67%
    11:00 +11°C° 0.2 mm 3 mps 681 mmHg 67%
    12:00 +12°C° 0.2 mm 4 mps 681 mmHg 67%
    13:00 +13°C° 0.2 mm 4 mps 680 mmHg 68%
    14:00 +12°C° 0.7 mm 4 mps 680 mmHg 71%
    15:00 +12°C° 0.7 mm 4 mps 680 mmHg 74%
    16:00 +12°C° 0.7 mm 3 mps 680 mmHg 77%
    17:00 +11°C° 0.6 mm 3 mps 680 mmHg 81%
    18:00 +11°C° 0.6 mm 3 mps 680 mmHg 85%
    19:00 +10°C° 0.6 mm 2 mps 680 mmHg 89%
    20:00 +10°C° 0.1 mm 2 mps 681 mmHg 90%
    21:00 +10°C° 0.1 mm 2 mps 681 mmHg 91%
    22:00 +10°C° 0.1 mm 1 mps 681 mmHg 91%
    23:00 +9°C° 0 mm 2 mps 682 mmHg 92%

    Tomorrow, 23 March, Saturday

    Time Temperature Precipitation Wind Pressure Humidity
    00:00 +9°C° 0 mm 2 mps 682 mmHg 92%
    01:00 +9°C° 0 mm 2 mps 682 mmHg 93%
    02:00 +8°C° 0 mm 2 mps 682 mmHg 94%
    03:00 +8°C° 0 mm 2 mps 682 mmHg 94%
    04:00 +8°C° 0 mm 2 mps 682 mmHg 95%
    05:00 +7°C° 0 mm 2 mps 683 mmHg 94%
    06:00 +7°C° 0 mm 2 mps 683 mmHg 93%
    07:00 +7°C° 0 mm 2 mps 683 mmHg 92%
    08:00 +8°C° 0 mm 2 mps 683 mmHg 85%
    09:00 +9°C° 0 mm 2 mps 683 mmHg 79%
    10:00 +10°C° 0 mm 2 mps 683 mmHg 73%
    11:00 +13°C° 0 mm 2 mps 683 mmHg 66%
    12:00 +13°C° 0 mm 3 mps 683 mmHg 59%
    13:00 +16°C° 0 mm 3 mps 683 mmHg 53%
    14:00 +16°C° 0 mm 3 mps 683 mmHg 52%
    15:00 +15°C° 0 mm 4 mps 682 mmHg 52%
    16:00 +15°C° 0 mm 4 mps 682 mmHg 52%
    17:00 +14°C° 0 mm 3 mps 682 mmHg 57%
    18:00 +14°C° 0 mm 2 mps 682 mmHg 61%
    19:00 +13°C° 0 mm 2 mps 682 mmHg 66%
    20:00 +12°C° 0 mm 1 mps 682 mmHg 66%
    21:00 +12°C° 0 mm 1 mps 682 mmHg 65%
    22:00 +11°C° 0 mm 0 mps 682 mmHg 65%
    23:00 +12°C° 0 mm 1 mps 682 mmHg 61%

    Day after tomorrow, 24 March, Sunday

    Time Temperature Precipitation Wind Pressure Humidity
    00:00 +11°C° 0 mm 1 mps 682 mmHg 58%
    01:00 +11°C° 0 mm 1 mps 682 mmHg 54%
    02:00 +11°C° 0 mm 1 mps 681 mmHg 52%
    03:00 +11°C° 0 mm 1 mps 681 mmHg 49%
    04:00 +11°C° 0 mm 1 mps 681 mmHg 47%
    05:00 +10°C° 0 mm 2 mps 681 mmHg 46%
    06:00 +12°C° 0 mm 2 mps 681 mmHg 45%
    07:00 +13°C° 0 mm 2 mps 681 mmHg 43%
    08:00 +15°C° 0 mm 2 mps 682 mmHg 38%
    09:00 +17°C° 0 mm 2 mps 682 mmHg 33%
    10:00 +20°C° 0 mm 2 mps 683 mmHg 28%
    11:00 +21°C° 0 mm 2 mps 682 mmHg 25%
    12:00 +23°C° 0 mm 2 mps 682 mmHg 23%
    13:00 +24°C° 0 mm 2 mps 682 mmHg 21%
    14:00 +24°C° 0 mm 2 mps 682 mmHg 21%
    15:00 +24°C° 0 mm 2 mps 681 mmHg 21%
    16:00 +24°C° 0 mm 2 mps 681 mmHg 22%
    17:00 +21°C° 0 mm 2 mps 681 mmHg 28%
    18:00 +20°C° 0 mm 2 mps 681 mmHg 34%
    19:00 +19°C° 0 mm 1 mps 681 mmHg 40%
    20:00 +18°C° 0 mm 2 mps 681 mmHg 40%
    21:00 +17°C° 0 mm 2 mps 681 mmHg 40%
    22:00 +17°C° 0 mm 3 mps 681 mmHg 39%
    23:00 +16°C° 0 mm 3 mps 681 mmHg 40%

    25 March, Monday

    Time Temperature Precipitation Wind Pressure Humidity
    00:00 +16°C° 0 mm 3 mps 681 mmHg 40%
    01:00 +16°C° 0 mm 3 mps 680 mmHg 40%
    02:00 +15°C° 0 mm 4 mps 680 mmHg 40%
    03:00 +15°C° 0 mm 4 mps 680 mmHg 40%
    04:00 +15°C° 0 mm 4 mps 680 mmHg 39%
    05:00 +15°C° 0 mm 4 mps 680 mmHg 39%
    06:00 +15°C° 0 mm 4 mps 680 mmHg 39%
    07:00 +15°C° 0 mm 4 mps 681 mmHg 39%
    08:00 +17°C° 0 mm 5 mps 681 mmHg 34%
    09:00 +21°C° 0 mm 5 mps 682 mmHg 30%
    10:00 +23°C° 0 mm 5 mps 682 mmHg 25%
    11:00 +25°C° 0 mm 4 mps 682 mmHg 24%
    12:00 +26°C° 0 mm 4 mps 682 mmHg 22%
    13:00 +27°C° 0 mm 3 mps 682 mmHg 21%
    14:00 +26°C° 0 mm 3 mps 681 mmHg 24%
    15:00 +26°C° 0 mm 3 mps 681 mmHg 26%
    16:00 +25°C° 0 mm 4 mps 681 mmHg 28%
    17:00 +23°C° 0 mm 4 mps 681 mmHg 31%
    18:00 +22°C° 0 mm 4 mps 681 mmHg 34%
    19:00 +21°C° 0 mm 4 mps 681 mmHg 37%
    20:00 +21°C° 0 mm 5 mps 681 mmHg 38%
    21:00 +20°C° 0 mm 5 mps 681 mmHg 39%
    22:00 +19°C° 0 mm 6 mps 681 mmHg 40%
    23:00 +19°C° 0 mm 5 mps 681 mmHg 40%

    26 March, Tuesday

    Time Temperature Precipitation Wind Pressure Humidity
    00:00 +19°C° 0 mm 5 mps 680 mmHg 40%
    01:00 +19°C° 0 mm 5 mps 680 mmHg 40%
    02:00 +19°C° 0 mm 5 mps 680 mmHg 41%
    03:00 +19°C° 0 mm 5 mps 680 mmHg 43%
    04:00 +19°C° 0 mm 5 mps 680 mmHg 44%
    05:00 +19°C° 0.3 mm 5 mps 680 mmHg 46%
    06:00 +19°C° 0.3 mm 5 mps 680 mmHg 49%
    07:00 +17°C° 0.3 mm 5 mps 681 mmHg 51%
    08:00 +19°C° 0.2 mm 6 mps 681 mmHg 49%
    09:00 +20°C° 0.2 mm 6 mps 682 mmHg 48%
    10:00 +21°C° 0.2 mm 7 mps 682 mmHg 46%
    11:00 +22°C° 0 mm 6 mps 682 mmHg 44%
    12:00 +23°C° 0 mm 6 mps 682 mmHg 42%
    13:00 +24°C° 0 mm 6 mps 682 mmHg 40%
    14:00 +25°C° 0 mm 5 mps 682 mmHg 41%
    15:00 +25°C° 0 mm 4 mps 682 mmHg 42%
    16:00 +25°C° 0 mm 3 mps 681 mmHg 43%
    17:00 +24°C° 0 mm 3 mps 681 mmHg 46%
    18:00 +21°C° 0 mm 3 mps 681 mmHg 49%
    19:00 +20°C° 0 mm 3 mps 681 mmHg 52%
    20:00 +20°C° 0.3 mm 4 mps 681 mmHg 54%
    21:00 +20°C° 0.3 mm 5 mps 681 mmHg 56%
    22:00 +19°C° 0.3 mm 6 mps 681 mmHg 58%
    23:00 +19°C° 0 mm 6 mps 681 mmHg 56%

    27 March, Wednesday

    Time Temperature Precipitation Wind Pressure Humidity
    00:00 +19°C° 0 mm 6 mps 680 mmHg 54%
    01:00 +18°C° 0 mm 7 mps 679 mmHg 53%
    02:00 +18°C° 0 mm 7 mps 679 mmHg 52%
    03:00 +18°C° 0 mm 7 mps 679 mmHg 51%
    04:00 +18°C° 0 mm 7 mps 679 mmHg 50%
    05:00 +18°C° 0.1 mm 7 mps 679 mmHg 50%
    06:00 +20°C° 0.1 mm 6 mps 680 mmHg 49%
    07:00 +20°C° 0.1 mm 6 mps 680 mmHg 49%
    08:00 +22°C° 0 mm 8 mps 681 mmHg 43%
    09:00 +24°C° 0 mm 9 mps 682 mmHg 38%
    10:00 +27°C° 0 mm 11 mps 682 mmHg 32%
    11:00 +27°C° 0 mm 11 mps 682 mmHg 33%
    12:00 +27°C° 0 mm 11 mps 682 mmHg 34%
    13:00 +27°C° 0 mm 10 mps 682 mmHg 34%
    14:00 +26°C° 0 mm 9 mps 682 mmHg 39%
    15:00 +24°C° 0 mm 7 mps 681 mmHg 44%
    16:00 +23°C° 0 mm 5 mps 681 mmHg 49%
    17:00 +21°C° 1.2 mm 5 mps 681 mmHg 59%
    18:00 +19°C° 1.2 mm 4 mps 682 mmHg 69%
    19:00 +17°C° 1.2 mm 4 mps 682 mmHg 79%
    20:00 +15°C° 1.1 mm 4 mps 683 mmHg 84%
    21:00 +14°C° 1.1 mm 4 mps 683 mmHg 89%
    22:00 +13°C° 1.1 mm 4 mps 684 mmHg 94%
    23:00 +13°C° 0.4 mm 4 mps 684 mmHg 92%
    Show more